Location: Newark
(30.1000°N, 109.4667°E)
Time: 04:10:11
(UTC+00:00)

SR - Pass Details

Date: 27 February 2020
Orbit: 578 x 878 km, 66.7° (Epoch: 04 April)

Event Time Altitude Azimuth Distance (km) Brightness Sun altitude
Rises 15:47:57 0° 341° (NNW) 3,186 - -63.2°
Reaches altitude 10° 15:50:30 10° 347° (NNW) 2,208 - -63.6°
Maximum altitude 15:55:20 49° 62° (ENE) 873 - -64.2°
Drops below altitude 10° 15:59:45 10° 137° (SE) 2,018 - -64.7°
Sets 16:01:59 0° 143° (SE) 2,884 - -65.0°
